Location: Asheville, NC
(35.6000°N, 82.5500°W)
Time: 09:43:08

Envisat - Pass Details

Date: 17 March 2018
Orbit: 764 x 766 km, 98.2° (Epoch: 20 March)

Event Time Altitude Azimuth Distance (km) Brightness Sun altitude
Rises 21:40:12 0° 189° (S) 3,212 6.1 -25.0°
Reaches altitude 10° 21:42:42 10° 198° (SSW) 2,290 5.4 -25.5°
Maximum altitude 21:47:14 34° 263° (W) 1,250 4.5 -26.3°
Drops below altitude 10° 21:51:49 10° 327° (NNW) 2,303 6.1 -27.2°
Sets 21:54:20 0° 337° (NNW) 3,233 6.8 -27.7°
